Regional Weather Roundup
Issued by NWS State College, PA

Home | Current Version | Previous Version | Graphics & Text | Print | Product List | Glossary On
Versions: 1 2 3 4 5 6 7 8 9 10 11 12 13 14 15 16 17 18 19 20 21 22 23 24 25 26 27 28 29 30 31 32 33 34 35 36 37 38 39 40 41 42 43 44 45 46 47 48 49 50
000
ASUS41 KCTP 022303
RWRCTP

REGIONAL WEATHER ROUNDUP
NATIONAL WEATHER SERVICE STATE COLLEGE PA
700 PM EDT WED SEP 02 2015

Note: "fair" indicates few or no clouds below 12,000 feet with no
significant weather and/or obstructions to visibility.

* = STATION THAT DOES NOT REPORT PRECIPITATION /E.G. RAIN...SNOW...ETC/
    THUNDER OR FOG.

PAZ002>004-007>009-013>016-020>023-029>032-030000-
WESTERN PENNSYLVANIA

CITY           SKY/WX    TMP DP  RH WIND       PRES   REMARKS
ERIE           CLEAR     81  67  62 W5        29.96F
MEADVILLE      CLEAR     82  63  52 NW3       30.00F
FRANKLIN*      CLEAR     81  64  57 W5        30.02F
NEW CASTLE     FAIR      83  64  52 CALM      29.99S
BEAVER COUNTY  PTCLDY    82  64  54 W3        30.00S
BUTLER*        CLEAR     84  63  48 W3        30.01S
PITTSBURGH INT PTCLDY    86  62  44 W3        29.99S
PITTSBURGH     PTCLDY    85  56  37 W9        29.99S
INDIANA*       PTCLDY    82  68  61 CALM      30.03S
LATROBE        CLEAR     81  68  65 S3        30.01S
WASHINGTON CO* CLEAR     82  63  51 W3        30.02R
$$

PAZ004>006-010>012-017>019-024>028-033>037-041-042-045-046-049>053-030000-
CENTRAL PENNSYLVANIA

CITY           SKY/WX    TMP DP  RH WIND       PRES   REMARKS
BRADFORD       MOCLDY    77  65  66 CALM      30.03F
DUBOIS         PTCLDY    80  69  69 CALM      30.01F
CLEARFIELD     PTCLDY    82  66  58 CALM      30.00F
JOHNSTOWN      PTCLDY    76  67  73 CALM      30.05F
ALTOONA        MOCLDY    78  66  66 CALM      30.02F
STATE COLLEGE  PTCLDY    77  66  69 W8        29.98S
WILLIAMSPORT   CLEAR     81  72  74 CALM      29.92S
SELINSGROVE    CLEAR     79  71  76 CALM      29.94S
FT INDIANTOWN  CLEAR     81  71  71 N2        29.93F
CAPITAL CITY   CLEAR     89  63  41 N3        29.92F
HARRISBURG     PTCLDY    84  71  65 CALM      29.91F
YORK           MOCLDY    81  69  67 W5        29.93F
$$

PAZ038>040-043-044-047-048-054-055-060>062-067>071-030000-
EASTERN PENNSYLVANIA

CITY           SKY/WX    TMP DP  RH WIND       PRES   REMARKS
SCRANTON       CLEAR     84  64  50 NW3       29.95S
MOUNT POCONO   CLOUDY    78  64  61 NW3       30.00F
ALLENTOWN      CLEAR     84  66  54 N3        29.92S
QUAKERTOWN*    PTCLDY    84  66  54 CALM      29.93F
READING        CLEAR     84  63  49 W5        29.91F
LANCASTER      CLEAR     85  63  47 CALM      29.93F
COATESVILLE    CLEAR     82  63  51 NW5       29.95F
POTTSTOWN      MOCLDY    85  64  49 W3        29.93F
BLUE BELL      CLEAR     86  63  45 CALM      29.90F
DOYLESTOWN     CLEAR     79  66  64 CALM      29.91S
WILLOW GROVE   NOT AVBL
NORTH PHILA    CLEAR     89  59  36 NW5       29.91S
PHILADELPHIA   PTCLDY    90  61  37 SW12      29.90F
$$



USA.gov is the U.S. government's official web portal to all federal, state and local government web resources and services.